Regional Weather Roundup
Issued by NWS Cleveland, OH

Home | Current Version | Previous Version | Graphics & Text | Print | Product List | Glossary On
Versions: 1 2 3 4 5 6 7 8 9 10 11 12 13 14 15 16 17 18 19 20 21 22 23 24 25 26 27 28 29 30 31 32 33 34 35 36 37 38 39 40 41 42 43 44 45 46 47 48 49 50
000
ASUS41 KCLE 010410
RWRCLE
OHIO REGIONAL WEATHER ROUNDUP
NATIONAL WEATHER SERVICE CLEVELAND, OH
1200 AM EDT MON SEP 01 2014

NOTE: "FAIR" INDICATES FEW OR NO CLOUDS BELOW 12,000 FEET WITH NO
SIGNIFICANT WEATHER AND/OR OBSTRUCTIONS TO VISIBILITY.

OHZ001>008-015>018-024>027-034-035-043-044-010500-
   NORTHWEST OHIO

CITY           SKY/WX    TMP DP  RH WIND       PRES   REMARKS
DEFIANCE       CLEAR     72  66  81 S5        29.94S
FINDLAY        CLEAR     72  68  87 S7        29.96S
TOLEDO EXPRESS CLEAR     71  69  93 S3        29.93F
TOLEDO EXEC    CLEAR     72  68  87 S6        29.94F
LIMA           MOCLDY    72  69  90 S7        29.98S
$$

OHZ009>014-019>023-028>033-038-089-010500-
   NORTHEAST OHIO

CITY           SKY/WX    TMP DP  RH WIND       PRES   REMARKS
CLE-HOPKINS    PTCLDY    73  69  87 S7        29.99F
CLE-LAKEFRONT  CLEAR     74  69  85 S8        29.95F
CUY CO. ARPT   NOT AVBL
LORAIN-ELYRIA  CLEAR     74  69  85 S7        29.98F
ASHTABULA      CLOUDY    69  69 100 S6        30.00F FOG
AKRON-CANTON   MOCLDY    72  69  90 S9        30.01F
WOOSTER        PTCLDY    71  69  93 S6        30.01F
MANSFIELD      CLEAR     71  71 100 S8        30.01S
YOUNGSTOWN     CLOUDY    70  69  97 S5        30.01F
$$

OHZ042-051>053-060>062-070>072-077>081-010500-
  SOUTHWEST OHIO

CITY           SKY/WX    TMP DP  RH WIND       PRES   REMARKS
CINC-COVINGTON CLEAR     70  68  93 S3        30.00F
CINC-LUNKEN    CLEAR     70  69  97 S3        30.00F
HAMILTON       CLEAR     70  69  97 CALM      30.00F
DAYTON         MOCLDY    75  70  84 S9        30.00F
WRIGHT-PAT AFB CLEAR     73  71  92 S7        29.99F
DAYTON GENERAL CLEAR     71  69  93 S6        29.99F
WILMINGTON     MOCLDY    68  67  96 S3        30.01F
$$

OHZ036-037-039>041-045>050-054>059-063>069-073>076-082>088-010500-
  CENTRAL AND SOUTHEAST OHIO

CITY           SKY/WX    TMP DP  RH WIND       PRES   REMARKS
COLUMBUS       PTCLDY    74  68  81 SE3       30.00F
OSU AIRPORT    CLEAR     73  68  84 S6        30.00F
BOLTON FIELD   PTCLDY    69  69  98 S6        30.01S
RICKENBACK AFB CLEAR     70  65  84 S6        30.00S
NEWARK         CLEAR     69  67  93 SE3       30.00F
MARION         CLEAR     72  69  90 S7        29.99F
LANCASTER      CLEAR     71  68  90 S6        30.01F
ZANESVILLE     CLEAR     70  67  90 S6        30.02F
NEW PHILLY     PTCLDY    72  70  93 S3        30.02S
$$


USA.gov is the U.S. government's official web portal to all federal, state and local government web resources and services.